AAL2513 KTUS-KPHX

Flight info

Callsign AAL2513
Flight time 0h 29m
Altitude 20000
Route BURRO5 HOTTT PINNG1
Aircraft B738/M-SDE2E3FGHIRWXY/LB1

Departure

Time 2026-05-03 23:23
Airport Tucson International Airport (KTUS)

Arrival

Time 2026-05-03 23:53
Airport Phoenix Sky Harbor International Airport (KPHX)
Time Latitude Longitude Altitude Speed Heading
2026-05-03 23:02 32.12127 -110.94035 2594 ft 0 kts 89°
2026-05-03 23:13 32.12126 -110.94046 2585 ft 4 kts 98°
2026-05-03 23:13 32.12136 -110.94068 2585 ft 4 kts 164°
2026-05-03 23:14 32.12157 -110.94068 2585 ft 1 kts 196°
2026-05-03 23:14 32.12161 -110.94066 2587 ft 1 kts 196°
2026-05-03 23:17 32.12158 -110.94067 2585 ft 2 kts 196°
2026-05-03 23:18 32.12138 -110.94074 2586 ft 4 kts 195°
2026-05-03 23:18 32.12108 -110.94084 2588 ft 5 kts 195°
2026-05-03 23:18 32.12076 -110.94087 2591 ft 5 kts 169°
2026-05-03 23:18 32.12074 -110.94087 2591 ft 0 kts 168°
2026-05-03 23:19 32.12073 -110.94086 2591 ft 1 kts 166°
2026-05-03 23:19 32.12036 -110.94087 2590 ft 8 kts 207°
2026-05-03 23:19 32.12003 -110.94135 2591 ft 8 kts 257°
2026-05-03 23:19 32.12028 -110.94187 2594 ft 7 kts 314°
2026-05-03 23:20 32.12065 -110.94228 2594 ft 7 kts 318°
2026-05-03 23:20 32.12102 -110.94270 2592 ft 8 kts 315°
2026-05-03 23:20 32.12153 -110.94333 2589 ft 14 kts 313°
2026-05-03 23:20 32.12228 -110.94421 2584 ft 15 kts 315°
2026-05-03 23:21 32.12302 -110.94506 2584 ft 15 kts 315°
2026-05-03 23:21 32.12350 -110.94562 2580 ft 1 kts 315°
2026-05-03 23:21 32.12386 -110.94605 2574 ft 11 kts 314°
2026-05-03 23:21 32.12405 -110.94682 2576 ft 0 kts 247°
2026-05-03 23:22 32.12349 -110.94749 2578 ft 14 kts 208°
2026-05-03 23:22 32.12282 -110.94724 2576 ft 1 kts 132°
2026-05-03 23:22 32.12282 -110.94723 2576 ft 4 kts 131°
2026-05-03 23:23 32.12057 -110.94460 2590 ft 86 kts 135°
2026-05-03 23:23 32.11441 -110.93753 2614 ft 157 kts 139°
2026-05-03 23:23 32.10633 -110.92691 3204 ft 180 kts 135°
2026-05-03 23:23 32.09751 -110.91608 4074 ft 188 kts 142°
2026-05-03 23:24 32.08726 -110.90563 4875 ft 201 kts 139°
2026-05-03 23:24 32.07748 -110.89418 5781 ft 191 kts 137°
2026-05-03 23:24 32.06829 -110.88239 6453 ft 205 kts 134°
2026-05-03 23:24 32.05873 -110.86913 6955 ft 219 kts 133°
2026-05-03 23:25 32.04864 -110.85544 7561 ft 222 kts 137°
2026-05-03 23:25 32.03725 -110.84321 8311 ft 219 kts 146°
2026-05-03 23:25 32.02424 -110.83346 8916 ft 231 kts 156°
2026-05-03 23:25 32.00841 -110.82604 9174 ft 259 kts 165°
2026-05-03 23:26 31.99000 -110.82137 9524 ft 276 kts 175°
2026-05-03 23:26 31.97099 -110.82148 9983 ft 272 kts 189°
2026-05-03 23:26 31.95292 -110.82967 10409 ft 292 kts 210°
2026-05-03 23:26 31.93515 -110.84344 10665 ft 318 kts 222°
2026-05-03 23:27 31.92195 -110.86458 11335 ft 328 kts 248°
2026-05-03 23:27 31.91832 -110.89105 12340 ft 330 kts 267°
2026-05-03 23:27 31.91826 -110.91794 13165 ft 335 kts 270°
2026-05-03 23:27 31.92364 -110.94491 13928 ft 346 kts 295°
2026-05-03 23:28 31.93747 -110.96828 14798 ft 349 kts 305°
2026-05-03 23:28 31.95228 -110.99123 15502 ft 354 kts 304°
2026-05-03 23:28 31.96693 -111.01446 16382 ft 353 kts 304°
2026-05-03 23:28 31.98156 -111.03797 17088 ft 358 kts 303°
2026-05-03 23:29 31.99634 -111.06192 17742 ft 364 kts 303°
2026-05-03 23:29 32.01126 -111.08622 18412 ft 367 kts 303°
2026-05-03 23:29 32.02616 -111.11049 19235 ft 363 kts 303°
2026-05-03 23:29 32.04098 -111.13463 19668 ft 362 kts 303°
2026-05-03 23:30 32.05706 -111.15737 19843 ft 363 kts 315°
2026-05-03 23:30 32.07861 -111.17304 19888 ft 369 kts 334°
2026-05-03 23:30 32.10385 -111.18036 19915 ft 381 kts 350°
2026-05-03 23:30 32.13055 -111.17861 19908 ft 391 kts
2026-05-03 23:31 32.15650 -111.17008 19913 ft 393 kts 12°
2026-05-03 23:31 32.18259 -111.16027 19912 ft 394 kts 13°
2026-05-03 23:31 32.20867 -111.15017 19909 ft 394 kts 13°
2026-05-03 23:31 32.23478 -111.14013 19904 ft 394 kts 13°
2026-05-03 23:32 32.26094 -111.13022 19893 ft 394 kts 13°
2026-05-03 23:32 32.28706 -111.12047 19889 ft 393 kts 13°
2026-05-03 23:32 32.31319 -111.11079 19864 ft 393 kts 13°
2026-05-03 23:32 32.33930 -111.10117 19882 ft 393 kts 13°
2026-05-03 23:33 32.36540 -111.09157 19882 ft 393 kts 13°
2026-05-03 23:33 32.39156 -111.08194 19878 ft 393 kts 13°
2026-05-03 23:33 32.41766 -111.07232 19879 ft 394 kts 13°
2026-05-03 23:33 32.44355 -111.06277 19880 ft 394 kts 13°
2026-05-03 23:34 32.46971 -111.05312 19875 ft 394 kts 13°
2026-05-03 23:34 32.49589 -111.04362 19879 ft 392 kts
2026-05-03 23:34 32.52260 -111.04100 19880 ft 381 kts 349°
2026-05-03 23:34 32.54778 -111.04815 19865 ft 362 kts 332°
2026-05-03 23:35 32.56921 -111.06204 19876 ft 343 kts 323°
2026-05-03 23:35 32.58915 -111.07713 19877 ft 338 kts 322°
2026-05-03 23:35 32.60882 -111.09240 19874 ft 339 kts 322°
2026-05-03 23:35 32.62864 -111.10772 19878 ft 340 kts 322°
2026-05-03 23:36 32.64856 -111.12295 19873 ft 341 kts 322°
2026-05-03 23:36 32.66168 -111.13290 19863 ft 335 kts 323°
2026-05-03 23:36 32.68107 -111.14749 19852 ft 323 kts 323°
2026-05-03 23:36 32.69966 -111.16145 19843 ft 309 kts 322°
2026-05-03 23:37 32.71747 -111.17482 19838 ft 296 kts 322°
2026-05-03 23:37 32.73454 -111.18764 19838 ft 284 kts 322°
2026-05-03 23:37 32.75300 -111.20724 19853 ft 256 kts 301°
2026-05-03 23:37 32.75976 -111.21880 19843 ft 248 kts 299°
2026-05-03 23:38 32.76923 -111.23563 19737 ft 245 kts 299°
2026-05-03 23:38 32.77887 -111.25302 19039 ft 262 kts 299°
2026-05-03 23:38 32.78938 -111.27201 18039 ft 290 kts 300°
2026-05-03 23:38 32.80100 -111.29285 17056 ft 311 kts 300°
2026-05-03 23:39 32.81311 -111.31440 16547 ft 315 kts 300°
2026-05-03 23:39 32.82528 -111.33593 16195 ft 312 kts 300°
2026-05-03 23:39 32.83734 -111.35729 15834 ft 311 kts 300°
2026-05-03 23:39 32.84939 -111.37864 15431 ft 312 kts 300°
2026-05-03 23:40 32.86130 -111.39978 15069 ft 311 kts 300°
2026-05-03 23:40 32.87337 -111.42119 14700 ft 311 kts 300°
2026-05-03 23:40 32.88542 -111.44260 14340 ft 311 kts 300°
2026-05-03 23:40 32.89746 -111.46400 13994 ft 311 kts 300°
2026-05-03 23:41 32.91072 -111.48441 13599 ft 315 kts 315°
2026-05-03 23:41 32.92887 -111.49796 13539 ft 303 kts 333°
2026-05-03 23:41 32.94805 -111.50737 13323 ft 295 kts 335°
2026-05-03 23:41 32.96710 -111.51630 12844 ft 297 kts 336°
2026-05-03 23:42 32.98687 -111.52562 12028 ft 311 kts 336°
2026-05-03 23:42 33.00712 -111.53530 11528 ft 314 kts 336°
2026-05-03 23:42 33.02735 -111.54507 11121 ft 312 kts 336°
2026-05-03 23:42 33.04722 -111.55473 10714 ft 312 kts 335°
2026-05-03 23:43 33.06724 -111.56450 10437 ft 310 kts 335°
2026-05-03 23:43 33.08708 -111.57424 10108 ft 308 kts 335°
2026-05-03 23:43 33.10692 -111.58403 9787 ft 307 kts 335°
2026-05-03 23:43 33.12659 -111.59376 9470 ft 305 kts 335°
2026-05-03 23:44 33.14613 -111.60343 9135 ft 303 kts 335°
2026-05-03 23:44 33.16560 -111.61306 8839 ft 302 kts 335°
2026-05-03 23:44 33.18479 -111.62254 8629 ft 292 kts 335°
2026-05-03 23:44 33.20309 -111.63158 8516 ft 276 kts 335°
2026-05-03 23:45 33.22034 -111.64010 8427 ft 260 kts 335°
2026-05-03 23:45 33.23666 -111.64855 8161 ft 254 kts 332°
2026-05-03 23:45 33.25272 -111.65786 7615 ft 261 kts 331°
2026-05-03 23:45 33.26921 -111.66764 7036 ft 268 kts 330°
2026-05-03 23:46 33.28622 -111.67770 6524 ft 272 kts 330°
2026-05-03 23:46 33.30272 -111.68740 6419 ft 257 kts 331°
2026-05-03 23:46 33.31822 -111.69648 6264 ft 247 kts 330°
2026-05-03 23:46 33.33363 -111.70551 6025 ft 245 kts 330°
2026-05-03 23:47 33.34879 -111.71438 5893 ft 237 kts 330°
2026-05-03 23:47 33.36312 -111.72274 5815 ft 220 kts 330°
2026-05-03 23:47 33.37642 -111.73052 5667 ft 208 kts 330°
2026-05-03 23:47 33.38937 -111.73809 5354 ft 206 kts 330°
2026-05-03 23:48 33.40193 -111.74610 5110 ft 201 kts 316°
2026-05-03 23:48 33.41028 -111.75870 5063 ft 196 kts 297°
2026-05-03 23:48 33.41795 -111.77261 5053 ft 198 kts 298°
2026-05-03 23:48 33.42500 -111.78707 4549 ft 212 kts 290°
2026-05-03 23:49 33.43069 -111.80305 4128 ft 203 kts 287°
2026-05-03 23:49 33.43569 -111.81824 3856 ft 187 kts 283°
2026-05-03 23:49 33.43897 -111.83270 3619 ft 173 kts 274°
2026-05-03 23:49 33.44052 -111.84637 3447 ft 161 kts 268°
2026-05-03 23:50 33.44109 -111.85946 3315 ft 155 kts 267°
2026-05-03 23:50 33.44159 -111.87230 3181 ft 153 kts 268°
2026-05-03 23:50 33.44190 -111.88523 3134 ft 159 kts 264°
2026-05-03 23:50 33.44105 -111.89870 2882 ft 165 kts 260°
2026-05-03 23:51 33.44024 -111.91225 2667 ft 157 kts 265°
2026-05-03 23:51 33.44115 -111.92510 2347 ft 154 kts 269°
2026-05-03 23:51 33.44111 -111.93762 2095 ft 151 kts 261°
2026-05-03 23:51 33.44061 -111.95065 1944 ft 161 kts 265°
2026-05-03 23:52 33.44081 -111.96407 1684 ft 165 kts 269°
2026-05-03 23:52 33.44086 -111.97754 1475 ft 157 kts 263°
2026-05-03 23:52 33.44091 -111.99030 1221 ft 146 kts 264°
2026-05-03 23:52 33.44084 -112.00167 1123 ft 124 kts 270°
2026-05-03 23:53 33.44081 -112.00934 1123 ft 42 kts 270°
2026-05-03 23:53 33.44085 -112.01207 1126 ft 15 kts 271°
2026-05-03 23:53 33.44053 -112.01333 1125 ft 17 kts 235°
2026-05-03 23:53 33.43993 -112.01409 1119 ft 0 kts 224°
2026-05-03 23:54 33.43985 -112.01409 1122 ft 3 kts 172°
2026-05-03 23:54 33.43975 -112.01356 1119 ft 11 kts 90°
2026-05-03 23:54 33.43976 -112.01245 1124 ft 14 kts 88°
2026-05-03 23:54 33.43978 -112.01133 1124 ft 13 kts 89°
2026-05-03 23:55 33.43975 -112.01025 1120 ft 13 kts 94°
2026-05-03 23:55 33.43973 -112.00921 1118 ft 12 kts 90°
2026-05-03 23:55 33.43974 -112.00819 1122 ft 12 kts 90°
2026-05-03 23:55 33.43976 -112.00719 1123 ft 12 kts 88°
2026-05-03 23:56 33.43979 -112.00621 1116 ft 12 kts 88°
2026-05-03 23:56 33.43979 -112.00526 1123 ft 11 kts 89°
2026-05-03 23:56 33.43976 -112.00434 1119 ft 11 kts 97°
2026-05-03 23:56 33.43926 -112.00373 1119 ft 11 kts 150°
2026-05-03 23:57 33.43907 -112.00294 1123 ft 10 kts 90°
2026-05-03 23:57 33.43907 -112.00288 1123 ft 0 kts 90°
2026-05-03 23:57 33.43907 -112.00284 1121 ft 4 kts 91°
2026-05-03 23:57 33.43879 -112.00237 1123 ft 8 kts 150°
2026-05-03 23:58 33.43834 -112.00218 1118 ft 0 kts 162°
2026-05-03 23:58 33.43831 -112.00216 1118 ft 0 kts 160°